This demonstration page uses our WeatherBlox Daily Observations layout. Learn more.

41.86663, -103.66717

Hourly Observations for August 12, 2020

Temp ( °F °C ) Dew Point ( °F °C ) Humidity (%) Winds ( mph kmh ) Pressure ( in mb ) Visibility ( mi km ) Precip ( " mm )
12:53 am 00:53 Clear 69 20.6 53 11.7 57 57 ESE 15 24 29.83 1010 10 16.0934 0 0
1:53 am 01:53 Clear 66 18.9 53 11.7 63 63 ESE 15 24 29.81 1010 10 16.0934 0 0
2:53 am 02:53 Clear 65 18.3 54 12.2 68 68 ESE 12 19 29.8 1009 10 16.0934 0 0
3:53 am 03:53 Clear 64 17.8 54 12.2 70 70 ESE 12 19 29.84 1011 10 16.0934 0 0
4:53 am 04:53 Clear 66 18.9 56 13.3 70 70 SE 12 19 29.82 1010 10 16.0934 0 0
5:53 am 05:53 Clear 70 21.1 60 15.6 71 71 SSE 13 20 29.84 1010 10 16.0934 0 0
6:53 am 06:53 Sunny 71 21.7 59 15 66 66 S 17 28 29.86 1011 10 16.0934 0 0
7:53 am 07:53 Sunny 73 22.8 57 13.9 57 57 undefined N/A 29.87 1012 10 16.0934 0 0
8:53 am 08:53 Sunny 77 25 57 13.9 50 50 undefined N/A 29.86 1011 10 16.0934 0 0
9:53 am 09:53 Sunny 81 27.2 58 14.4 45 45 SSW 20 31 29.84 1011 10 16.0934 0 0
10:53 am 10:53 Sunny 86 30 57 13.9 37 37 SSW 16 26 29.82 1010 10 16.0934 0 0
11:53 am 11:53 Sunny 90 32.2 55 12.8 31 31 SW 16 26 29.8 1009 10 16.0934 0 0
12:53 pm 12:53 Sunny 93 33.9 53 11.7 26 26 S 12 19 29.77 1008 10 16.0934 0 0
1:53 pm 13:53 Sunny 93 33.9 52 11.1 25 25 S 8 13 29.75 1007 10 16.0934 0 0
2:53 pm 14:53 Sunny 96 35.6 49 9.4 20 20 SSE 8 13 29.74 1007 10 16.0934 0 0
3:53 pm 15:53 Sunny 96 35.6 51 10.6 22 22 SSW 7 11 29.73 1007 10 16.0934 0 0
4:53 pm 16:53 Sunny 94 34.4 41 5 16 16 SSW 14 22 29.73 1007 10 16.0934 0 0
5:53 pm 17:53 Sunny 90 32.2 45 7.2 21 21 SE 12 19 29.74 1007 10 16.0934 0 0
6:53 pm 18:53 Sunny 86 30 44 6.7 23 23 SE 12 19 29.75 1007 10 16.0934 0 0
7:53 pm 19:53 Sunny 79 26.1 51 10.6 38 38 E 12 19 29.8 1009 10 16.0934 0 0
8:53 pm 20:53 Mostly Cloudy 82 27.8 45 7.2 27 27 ESE 16 26 29.83 1010 10 16.0934 0 0
9:53 pm 21:53 Clear 76 24.4 49 9.4 39 39 SE 9 15 29.85 1011 10 16.0934 0.001 0.001
10:53 pm 22:53 Clear 72 22.2 51 10.6 48 48 SE 7 11 29.85 1011 10 16.0934 0 0
11:53 pm 23:53 Clear 70 21.1 57 13.9 64 64 E 13 20 29.84 1011 10 16.0934 0 0

Powered by AerisWeather